[[{"header":{"parameterUnit":"m.s-1","parameterCategory":2,"la1":30.2991,"la2":30.254,"lo1":-89.0895,"lo2":-89.0444,"dy":0.0017,"dx":0.0017,"nx":28,"ny":28,"refTime":"2023-08-13T03:00:00:Z","depth":"0","parameterNumber":2,"parameterNumberName":"U-component_of_CURRENTS"},"data":[0,0,0,0,0,0,0,0,0,0,0,0,0,0,0,0,0,0,0,0,0,0,0,0,0,0,0,0,0,0,0,0,0,0,0,0,0,0,0,0,0,0,0,0,0,0,0,0,0,0,0,0,0,0,0,0,0,0,0.4314,0.4316,0,0.4414,0.4415,0.4415,0.4397,0.4396,0.4395,0.4394,0.4438,0.444,0.4442,0,0,0,0,0,0,0,0,0,0,0,0,0,0.4094,0.4097,0.4314,0.4316,0.4318,0.4414,0.4415,0.4415,0.4397,0.4396,0.4395,0.4393,0.4437,0.444,0.4442,0,0,0,0,0,0,0,0,0,0,0,0,0,0.4185,0.4098,0.4314,0.4325,0.4328,0.4414,0.4415,0.4416,0.4398,0.4396,0.4394,0.4393,0.4436,0.4439,0.4443,0.4498,0,0,0.4453,0.4454,0,0,0,0,0,0,0,0,0.4179,0.4192,0.4322,0.4325,0.4328,0.4397,0.4353,0.4443,0.4398,0.4364,0.4394,0.4392,0.4425,0.4429,0.4443,0.45,0.4502,0.4453,0.4455,0.4457,0.4458,0,0,0,0,0,0,0,0.4173,0.4188,0.4347,0.4324,0.4328,0.4321,0.4332,0.437,0.4397,0.4367,0.4368,0.439,0.4425,0.444,0.4444,0.4503,0.4453,0.4456,0.4458,0.446,0.4713,0.4718,0,0,0,0,0,0,0.4178,0.4182,0.4344,0.4351,0.4256,0.4327,0.4338,0.4371,0.4398,0.4402,0.4391,0.4389,0.4435,0.444,0.4445,0.4554,0.4457,0.446,0.4462,0.4708,0.4714,0.4719,0,0,0,0,0,0,0.4173,0.4192,0.434,0.4273,0.4292,0.4334,0.437,0.4374,0.44,0.4418,0.442,0.4415,0.4434,0.444,0.4519,0.4553,0.4461,0.4465,0.4703,0.471,0.4717,0.4744,0,0,0,0,0,0,0.4166,0.419,0.4217,0.4274,0.4296,0.4433,0.4373,0.4378,0.442,0.4417,0.4439,0.444,0.4433,0.4514,0.4522,0.4556,0.4467,0.4697,0.4706,0.4715,0.4737,0.4751,0.4763,0,0,0,0,0,0.4158,0.424,0.4218,0.4238,0.4332,0.4438,0.445,0.4466,0.4423,0.4473,0.448,0.444,0.4576,0.4521,0.4529,0.4564,0.4693,0.4704,0.4714,0.4731,0.4748,0.4763,0,0,0,0,0,0,0.4176,0.4248,0.4225,0.4325,0.4382,0.4438,0.4495,0.4482,0.4525,0.4511,0.4496,0.4503,0.4603,0.4597,0.4536,0.4676,0.4631,0.4643,0.4641,0.4658,0.467,0.4728,0.447,0,0,0,0,0,0.4186,0.4254,0.4311,0.439,0.4424,0.4447,0.4487,0.4494,0.4539,0.4553,0.4562,0.459,0.4656,0.4662,0.4733,0.4784,0.4837,0.4822,0.4835,0.4845,0.4907,0.5016,0.5043,0.4754,0.4754,0.4754,0,0,0.4209,0.4262,0.4295,0.4395,0.4433,0.4487,0.4468,0.455,0.4583,0.4554,0.4612,0.4657,0.4697,0.4779,0.4818,0.4763,0.4956,0.4859,0.4866,0.4924,0.503,0.5057,0.5082,0.4761,0.476,0.4759,0,0,0.4284,0.4342,0.4399,0.4453,0.4526,0.4551,0.4575,0.4632,0.4657,0.472,0.4727,0.4823,0.4853,0.4925,0.4951,0.5091,0.5053,0.5068,0.5131,0.5233,0.5257,0.5279,0.5363,0.5392,0.5031,0.5031,0.5031,0,0.4302,0.4371,0.4439,0.45,0.4535,0.4574,0.4617,0.4674,0.4741,0.4767,0.475,0.4888,0.4948,0.5057,0.5122,0.5123,0.5144,0.5043,0.5246,0.5268,0.529,0.5372,0.5403,0.5033,0.5033,0.5033,0.5033,0,0.4384,0.4439,0.45,0.456,0.4618,0.469,0.475,0.4803,0.4811,0.4843,0.4968,0.5063,0.5136,0.5171,0.5192,0.5361,0.5316,0.5272,0.5188,0.532,0.5398,0.5431,0.5037,0.5036,0.5036,0.5035,0,0,0.4416,0.4525,0.4537,0.454,0.4646,0.4691,0.478,0.486,0.4889,0.4983,0.5039,0.5231,0.5267,0.5316,0.5351,0.5458,0.5659,0.5421,0.5425,0.5476,0.5852,0.5756,0.5781,0.5595,0.5601,0.5606,0.5835,0,0.4442,0.4524,0.4581,0.4636,0.4673,0.4734,0.4801,0.4877,0.4942,0.502,0.5156,0.5254,0.5314,0.5348,0.5481,0.5629,0.5747,0.5601,0.5747,0.5754,0.5627,0.5819,0.5577,0.5755,0.5866,0.5872,0.5876,0,0.4471,0.4521,0.4571,0.4627,0.4649,0.4685,0.4758,0.4832,0.4975,0.5028,0.5155,0.5242,0.548,0.5482,0.5814,0.5686,0.5815,0.5914,0.5921,0.5861,0.5721,0.5652,0.5809,0.5552,0.5925,0.5921,0.5918,0,0.4406,0.4501,0.4522,0.4549,0.4636,0.4655,0.4706,0.4823,0.4878,0.505,0.5097,0.5331,0.5455,0.5672,0.5923,0.5862,0.6244,0.6164,0.6203,0.6195,0.6049,0.6017,0.5961,0.6425,0.6424,0.6424,0.6423,0,0.4402,0.4412,0.4484,0.4495,0.4508,0.4593,0.4624,0.4714,0.4839,0.4917,0.5102,0.5203,0.551,0.5734,0.5944,0.6194,0.6269,0.6303,0.6281,0.6049,0.6016,0.5831,0.5702,0.6432,0.643,0.6429,0.6427,0,0.432,0.4377,0.4394,0.4465,0.4476,0.4485,0.4554,0.4588,0.4727,0.4839,0.4902,0.5155,0.545,0.5732,0.61,0.6205,0.6273,0.6513,0.622,0.6161,0.5908,0.5791,0.573,0.5589,0.6599,0.6598,0.6598,0,0.4282,0.4288,0.4338,0.4334,0.4359,0.4379,0.4396,0.4521,0.4579,0.4804,0.4865,0.515,0.5339,0.5816,0.609,0.6423,0.6234,0.6345,0.6232,0.5931,0.5786,0.5611,0.5483,0.6049,0.6044,0.604,0.6036,0,0.4203,0.422,0.423,0.4232,0.4236,0.4235,0.4287,0.4305,0.4478,0.4592,0.4764,0.4924,0.5354,0.5567,0.5972,0.6158,0.5974,0.6269,0.6042,0.5462,0.5189,0.5024,0.5844,0.6001,0.6004,0.6007,0.6009,0.601,0.4122,0.4109,0.4124,0.4112,0.4105,0.4087,0.4055,0.4147,0.422,0.438,0.4591,0.4779,0.5058,0.5584,0.573,0.5709,0.5766,0.5582,0.5506,0.5391,0.5122,0.5868,0.5928,0.593,0.5933,0.5935,0.5937,0,0.4024,0.4017,0.4002,0.3966,0.3902,0.3955,0.3968,0.3943,0.3991,0.4223,0.437,0.4536,0.4709,0.4933,0.5063,0.4957,0.4848,0.481,0.4478,0.4427,0.5166,0.5,0.4753,0.4753,0.4753,0.4753,0.4754,0.4754,0.3968,0.3921,0.3918,0.3779,0.3739,0.3636,0.3621,0.3637,0.3762,0.384,0.3927,0.4069,0.4242,0.4345,0.425,0.4204,0.3892,0.3771,0.3781,0.4214,0.4277,0.4337,0.415,0.3728,0.3727,0.2906,0.2898,0.2893]},{"header":{"parameterUnit":"m.s-1","parameterCategory":2,"la1":30.2991,"la2":30.254,"lo1":-89.0895,"lo2":-89.0444,"dy":0.0017,"dx":0.0017,"nx":28,"ny":28,"refTime":"2023-08-13T03:00:00:Z","depth":"0","parameterNumber":3,"parameterNumberName":"V-component_of_CURRENTS"},"data":[0,0,0,0,0,0,0,0,0,0,0,0,0,0,0,0,0,0,0,0,0,0,0,0,0,0,0,0,0,0,0,0,0,0,0,0,0,0,0,0,0,0,0,0,0,0,0,0,0,0,0,0,0,0,0,0,0,0,0.0697,0.0698,0,0.0736,0.0737,0.0738,0.0669,0.0667,0.0664,0.0661,0.0576,0.0576,0.0577,0,0,0,0,0,0,0,0,0,0,0,0,0,0.0542,0.0546,0.0697,0.0698,0.0698,0.0736,0.0737,0.0738,0.067,0.0666,0.0663,0.066,0.0576,0.0576,0.0577,0,0,0,0,0,0,0,0,0,0,0,0,0,0.0602,0.0547,0.0697,0.0666,0.0663,0.0736,0.0737,0.0738,0.067,0.0666,0.0662,0.0659,0.0576,0.0576,0.0577,0.0658,0,0,0.0578,0.0578,0,0,0,0,0,0,0,0,0.0598,0.0608,0.067,0.0668,0.0665,0.0691,0.0651,0.0704,0.0671,0.0671,0.0661,0.0657,0.0604,0.0602,0.0624,0.0654,0.065,0.0578,0.0578,0.0578,0.0578,0,0,0,0,0,0,0,0.0594,0.0606,0.0716,0.0671,0.0667,0.0642,0.0646,0.0661,0.066,0.0671,0.0665,0.0665,0.0601,0.0625,0.0621,0.0649,0.0578,0.0578,0.0578,0.0578,0.0717,0.072,0,0,0,0,0,0,0.0589,0.0603,0.0715,0.0717,0.0617,0.0647,0.0653,0.0689,0.0662,0.0654,0.0669,0.0662,0.0626,0.0621,0.0618,0.0708,0.0578,0.0578,0.0578,0.0713,0.0718,0.0721,0,0,0,0,0,0,0.0586,0.06,0.0713,0.0655,0.0667,0.0654,0.0696,0.0692,0.0708,0.0661,0.065,0.0686,0.0623,0.0618,0.065,0.0703,0.0578,0.0579,0.0709,0.0715,0.072,0.0889,0,0,0,0,0,0,0.0583,0.06,0.063,0.0656,0.067,0.0779,0.0699,0.0696,0.0713,0.0704,0.0673,0.0661,0.0619,0.065,0.065,0.0701,0.0579,0.0705,0.0712,0.0718,0.0879,0.09,0.0917,0,0,0,0,0,0.0578,0.066,0.0633,0.0645,0.0711,0.0782,0.0789,0.0766,0.0717,0.0759,0.0731,0.0662,0.0691,0.0655,0.0654,0.0705,0.0702,0.071,0.0717,0.0871,0.0895,0.0917,0,0,0,0,0,0,0.0642,0.0661,0.0631,0.0722,0.0746,0.0769,0.0813,0.0784,0.08,0.0786,0.0719,0.071,0.0759,0.072,0.0681,0.0766,0.0681,0.0689,0.0798,0.0821,0.084,0.0874,0.0579,0,0,0,0,0,0.0662,0.0713,0.0724,0.0802,0.0817,0.0812,0.0834,0.0821,0.0833,0.0835,0.0811,0.0791,0.08,0.0796,0.0804,0.0859,0.0812,0.0889,0.0908,0.0924,0.0954,0.0949,0.097,0.0747,0.0747,0.0747,0,0,0.071,0.0727,0.0757,0.0814,0.0833,0.089,0.0819,0.0881,0.0924,0.0826,0.089,0.0867,0.0834,0.0894,0.091,0.086,0.096,0.0934,0.0948,0.0969,0.096,0.0981,0.1,0.0753,0.0752,0.0751,0,0,0.0828,0.085,0.0912,0.0939,0.0967,0.0975,0.0992,0.1018,0.1025,0.1086,0.1023,0.1046,0.1052,0.1053,0.1046,0.1182,0.1069,0.1161,0.1277,0.1273,0.129,0.1306,0.1255,0.1264,0.116,0.1161,0.1161,0,0.0873,0.0952,0.0949,0.101,0.1041,0.1014,0.1086,0.1118,0.1149,0.1174,0.1125,0.117,0.114,0.1209,0.1248,0.1228,0.1177,0.1188,0.1296,0.1311,0.1323,0.1267,0.1275,0.117,0.1169,0.1168,0.1167,0,0.1013,0.1071,0.1129,0.1179,0.1224,0.1298,0.1314,0.1364,0.1355,0.1365,0.1435,0.1412,0.1428,0.1424,0.1376,0.1457,0.1374,0.1326,0.1235,0.1356,0.1289,0.1294,0.1183,0.118,0.1177,0.1175,0,0,0.1112,0.12,0.1213,0.1245,0.131,0.1363,0.1462,0.1536,0.1593,0.1618,0.1692,0.1722,0.1686,0.168,0.1622,0.162,0.1659,0.1514,0.1509,0.1457,0.1605,0.154,0.1537,0.161,0.1613,0.1615,0.1514,0,0.1207,0.1328,0.1357,0.1481,0.154,0.156,0.1654,0.1716,0.175,0.1823,0.1815,0.1863,0.1787,0.1786,0.1788,0.1706,0.1684,0.1688,0.1502,0.1497,0.142,0.1548,0.1459,0.1363,0.1519,0.152,0.152,0,0.131,0.1371,0.1493,0.1599,0.1631,0.1705,0.1822,0.1903,0.1997,0.2024,0.2072,0.2047,0.2087,0.1981,0.1921,0.1916,0.1784,0.1699,0.1692,0.1583,0.1445,0.1272,0.1365,0.1019,0.1527,0.1526,0.1526,0,0.1333,0.1466,0.1556,0.1593,0.1715,0.1782,0.1853,0.196,0.2045,0.2141,0.2199,0.2224,0.2233,0.2131,0.1969,0.194,0.1859,0.1788,0.16,0.1589,0.1459,0.1435,0.1198,0.1728,0.1728,0.1728,0.1729,0,0.1405,0.1476,0.1569,0.1616,0.1738,0.1814,0.1953,0.2029,0.216,0.2277,0.2289,0.2371,0.2268,0.2205,0.2034,0.1852,0.1906,0.1658,0.1588,0.1513,0.1497,0.1143,0.1035,0.1724,0.1725,0.1726,0.1727,0,0.1408,0.1474,0.1573,0.1699,0.1746,0.1825,0.2,0.211,0.2219,0.237,0.2408,0.2488,0.2443,0.229,0.2121,0.1931,0.1589,0.1647,0.1551,0.1475,0.1009,0.0919,0.0728,0.0637,0.1464,0.1462,0.146,0,0.142,0.1469,0.1599,0.1663,0.172,0.185,0.1963,0.2117,0.2243,0.2441,0.2526,0.255,0.2604,0.2351,0.2035,0.1744,0.151,0.1414,0.1371,0.1005,0.0851,0.0796,0.0731,0.1238,0.1235,0.1233,0.123,0,0.1424,0.1461,0.1535,0.1662,0.1776,0.1923,0.2089,0.2203,0.2401,0.2552,0.2725,0.279,0.2583,0.2325,0.1927,0.1682,0.1212,0.1351,0.1005,0.0713,0.0609,0.0478,0.124,0.1207,0.121,0.1211,0.1212,0.1213,0.1406,0.145,0.1545,0.1667,0.1808,0.1991,0.2121,0.2321,0.2543,0.2814,0.2859,0.3003,0.2535,0.2043,0.1683,0.0886,0.1041,0.0628,0.056,0.0544,0.0437,0.1146,0.1021,0.1022,0.1023,0.1024,0.1025,0,0.138,0.1445,0.1554,0.1714,0.1866,0.1954,0.2212,0.2374,0.2635,0.2909,0.3091,0.2875,0.2304,0.1678,0.0661,0.0144,0.0011,-0.0138,-0.0284,-0.0297,0.0317,0.028,-0.005,-0.005,-0.0049,-0.0049,-0.0049,-0.0048,0.1369,0.1445,0.1511,0.1725,0.1856,0.2078,0.223,0.2492,0.2733,0.3018,0.3093,0.3126,0.2472,0.0761,-0.0459,-0.0693,-0.0984,-0.1023,-0.1112,-0.0804,-0.0741,-0.0681,-0.075,-0.129,-0.1291,-0.1734,-0.1739,-0.1743]}],[{"header":{"parameterUnit":"m.s-1","parameterCategory":2,"la1":30.2991,"la2":30.254,"lo1":-89.0895,"lo2":-89.0444,"dy":0.0017,"dx":0.0017,"nx":28,"ny":28,"refTime":"2023-08-13T03:00:00:Z","depth":"2","parameterNumber":2,"parameterNumberName":"U-component_of_CURRENTS"},"data":[0,0,0,0,0,0,0,0,0,0,0,0,0,0,0,0,0,0,0,0,0,0,0,0,0,0,0,0,0,0,0,0,0,0,0,0,0,0,0,0,0,0,0,0,0,0,0,0,0,0,0,0,0,0,0,0,0,0,0.3284,0.3286,0,0.3425,0.3425,0.3426,0.3437,0.3436,0.3436,0.3435,0.3491,0.3494,0.3496,0,0,0,0,0,0,0,0,0,0,0,0,0,0.3066,0.3069,0.3284,0.3287,0.3289,0.3424,0.3425,0.3427,0.3437,0.3436,0.3435,0.3434,0.3491,0.3493,0.3496,0,0,0,0,0,0,0,0,0,0,0,0,0,0.3171,0.307,0.3284,0.3317,0.3322,0.3424,0.3426,0.3427,0.3437,0.3436,0.3435,0.3434,0.349,0.3493,0.3496,0.3539,0,0,0.3506,0.3508,0,0,0,0,0,0,0,0,0.3165,0.3177,0.331,0.3315,0.3321,0.342,0.337,0.3463,0.3438,0.3384,0.3435,0.3434,0.3466,0.3471,0.3489,0.3542,0.3544,0.3507,0.3509,0.351,0.3511,0,0,0,0,0,0,0,0.3157,0.3172,0.3331,0.3313,0.332,0.334,0.3352,0.3388,0.3422,0.3389,0.3392,0.3422,0.3467,0.3486,0.349,0.3545,0.3507,0.351,0.3512,0.3513,0.3755,0.3759,0,0,0,0,0,0,0.3157,0.3165,0.3327,0.3336,0.3248,0.3345,0.3358,0.3382,0.3423,0.3432,0.3423,0.3422,0.3481,0.3487,0.3492,0.3607,0.351,0.3513,0.3515,0.3751,0.3756,0.3761,0,0,0,0,0,0,0.3152,0.317,0.3321,0.3261,0.3282,0.3351,0.3377,0.3386,0.3424,0.3452,0.3456,0.3455,0.348,0.3488,0.3561,0.3606,0.3515,0.3518,0.3745,0.3752,0.3758,0.3796,0,0,0,0,0,0,0.3145,0.3167,0.3201,0.3261,0.3286,0.3399,0.3379,0.339,0.3447,0.3447,0.3481,0.3483,0.348,0.3556,0.3564,0.3609,0.352,0.374,0.3748,0.3756,0.3789,0.3803,0.3815,0,0,0,0,0,0.3136,0.3176,0.3201,0.3223,0.3324,0.3402,0.3417,0.3455,0.345,0.348,0.3513,0.3483,0.3615,0.3562,0.357,0.3617,0.3736,0.3746,0.3756,0.3783,0.38,0.3815,0,0,0,0,0,0,0.3101,0.3184,0.3212,0.3276,0.3348,0.3407,0.3451,0.3473,0.3523,0.3525,0.353,0.3538,0.3622,0.3633,0.3574,0.3722,0.3676,0.3688,0.3694,0.371,0.3723,0.3702,0.3523,0,0,0,0,0,0.3114,0.316,0.3245,0.33,0.3339,0.34,0.3443,0.347,0.352,0.3541,0.3567,0.3613,0.3672,0.3698,0.3746,0.3819,0.3828,0.3865,0.3878,0.3888,0.3885,0.3971,0.399,0.3794,0.3794,0.3793,0,0,0.3113,0.3171,0.3197,0.3297,0.3352,0.341,0.342,0.3494,0.3541,0.3541,0.3612,0.3657,0.3706,0.379,0.3829,0.3799,0.3951,0.3901,0.3908,0.3899,0.3984,0.4002,0.4018,0.38,0.3799,0.3798,0,0,0.3126,0.3193,0.3233,0.3295,0.3395,0.3439,0.3466,0.3545,0.3583,0.3668,0.3687,0.3761,0.3842,0.3884,0.3916,0.4038,0.4019,0.407,0.4106,0.4191,0.4206,0.422,0.4239,0.4254,0.4071,0.4071,0.4071,0,0.3122,0.3188,0.326,0.3317,0.3368,0.3451,0.3499,0.3563,0.3654,0.3702,0.3698,0.3857,0.3884,0.3993,0.4035,0.4059,0.409,0.4027,0.4202,0.4216,0.4229,0.4246,0.4261,0.4074,0.4074,0.4073,0.4073,0,0.3162,0.3222,0.3255,0.3348,0.3414,0.3476,0.3571,0.3642,0.3699,0.3763,0.3893,0.3952,0.4045,0.4078,0.4085,0.4211,0.4195,0.4204,0.4142,0.4249,0.4262,0.4277,0.4078,0.4077,0.4076,0.4076,0,0,0.3112,0.325,0.326,0.3305,0.3433,0.3484,0.3585,0.3701,0.3764,0.3878,0.396,0.4087,0.4137,0.4179,0.4218,0.4281,0.4385,0.4283,0.4286,0.4265,0.4541,0.4298,0.4291,0.4432,0.4436,0.4439,0.4504,0,0.3117,0.3205,0.3279,0.3362,0.3416,0.352,0.3599,0.3717,0.3818,0.3921,0.4036,0.4132,0.4176,0.4216,0.4307,0.4378,0.4433,0.4364,0.4472,0.4474,0.4216,0.4304,0.3974,0.3985,0.4519,0.4521,0.4523,0,0.3119,0.3183,0.3258,0.3368,0.3401,0.3462,0.36,0.3686,0.3861,0.3943,0.4089,0.417,0.4319,0.431,0.4511,0.4474,0.4513,0.4546,0.455,0.4316,0.426,0.3974,0.3993,0.4549,0.4547,0.4545,0.4543,0,0.3039,0.3158,0.3215,0.3256,0.34,0.3453,0.3533,0.3696,0.3778,0.396,0.4049,0.4232,0.4347,0.4452,0.4571,0.4551,0.4744,0.4721,0.4533,0.4515,0.4246,0.4196,0.4829,0.4829,0.4829,0.4829,0.4828,0,0.3002,0.3046,0.3184,0.3216,0.3272,0.3401,0.3488,0.3594,0.3761,0.3873,0.4064,0.4181,0.4398,0.4541,0.4596,0.4623,0.4789,0.4537,0.4524,0.4247,0.4199,0.4701,0.4685,0.4831,0.4831,0.483,0.483,0,0.2898,0.2997,0.3056,0.3195,0.3236,0.3274,0.3431,0.3499,0.3694,0.3844,0.3906,0.4191,0.4381,0.4542,0.4709,0.4644,0.4673,0.4632,0.4253,0.419,0.4366,0.4353,0.4393,0.4385,0.4378,0.4373,0.4368,0,0.2852,0.2878,0.3,0.3025,0.3086,0.3177,0.3236,0.3427,0.3522,0.3839,0.3902,0.4152,0.4263,0.4416,0.4359,0.4353,0.4579,0.4019,0.3886,0.4341,0.4327,0.4324,0.432,0.3562,0.3551,0.3543,0.3535,0,0.2739,0.2788,0.2833,0.2893,0.295,0.3015,0.3137,0.3194,0.3447,0.3591,0.3798,0.389,0.403,0.3886,0.387,0.3819,0.3977,0.3824,0.4473,0.3689,0.3554,0.3541,0.3566,0.3456,0.3464,0.347,0.3474,0.3477,0.2632,0.263,0.2696,0.2745,0.2792,0.2844,0.2861,0.3016,0.3125,0.3271,0.3482,0.3523,0.3549,0.3318,0.324,0.3196,0.3417,0.3296,0.3328,0.3368,0.3225,0.3082,0.2867,0.2871,0.2875,0.2879,0.2882,0,0.2489,0.2524,0.2551,0.259,0.2579,0.2684,0.2778,0.2783,0.2849,0.295,0.3023,0.2753,0.2642,0.2782,0.2532,0.2429,0.2443,0.2402,0.2451,0.2527,0.2596,0.2419,0.1846,0.1843,0.1841,0.1839,0,0,0.2415,0.2399,0.2435,0.2381,0.2412,0.238,0.2406,0.2435,0.2491,0.2374,0.2345,0.243,0.261,0.2188,0.2102,0.1978,0.2247,0.1889,0.2709,0.2841,0.2908,0.3083,0.2889,0,0,0,0,0]},{"header":{"parameterUnit":"m.s-1","parameterCategory":2,"la1":30.2991,"la2":30.254,"lo1":-89.0895,"lo2":-89.0444,"dy":0.0017,"dx":0.0017,"nx":28,"ny":28,"refTime":"2023-08-13T03:00:00:Z","depth":"2","parameterNumber":3,"parameterNumberName":"V-component_of_CURRENTS"},"data":[0,0,0,0,0,0,0,0,0,0,0,0,0,0,0,0,0,0,0,0,0,0,0,0,0,0,0,0,0,0,0,0,0,0,0,0,0,0,0,0,0,0,0,0,0,0,0,0,0,0,0,0,0,0,0,0,0,0,-0.0816,-0.0817,0,-0.0862,-0.0862,-0.0862,-0.0881,-0.0881,-0.0882,-0.0882,-0.094,-0.0942,-0.0943,0,0,0,0,0,0,0,0,0,0,0,0,0,-0.0765,-0.0765,-0.0816,-0.0817,-0.0818,-0.0862,-0.0862,-0.0862,-0.0881,-0.0881,-0.0882,-0.0882,-0.094,-0.0941,-0.0943,0,0,0,0,0,0,0,0,0,0,0,0,0,-0.0793,-0.0765,-0.0816,-0.0835,-0.0837,-0.0862,-0.0862,-0.0862,-0.0881,-0.0881,-0.0882,-0.0882,-0.0939,-0.0941,-0.0943,-0.0949,0,0,-0.0949,-0.095,0,0,0,0,0,0,0,0,-0.0791,-0.0794,-0.0831,-0.0834,-0.0837,-0.0869,-0.0866,-0.0893,-0.0881,-0.0861,-0.0882,-0.0882,-0.092,-0.0923,-0.0926,-0.0951,-0.0954,-0.095,-0.0951,-0.0952,-0.0952,0,0,0,0,0,0,0,-0.0789,-0.0793,-0.083,-0.0832,-0.0836,-0.0849,-0.0853,-0.0871,-0.0885,-0.0862,-0.0865,-0.0876,-0.0921,-0.0924,-0.0928,-0.0955,-0.0949,-0.0951,-0.0953,-0.0953,-0.0888,-0.0885,0,0,0,0,0,0,-0.079,-0.0791,-0.0829,-0.0832,-0.0818,-0.085,-0.0854,-0.0855,-0.0885,-0.089,-0.0875,-0.0876,-0.092,-0.0925,-0.093,-0.0886,-0.0952,-0.0953,-0.0955,-0.0891,-0.0887,-0.0884,0,0,0,0,0,0,-0.0788,-0.0792,-0.0827,-0.0816,-0.0822,-0.085,-0.0852,-0.0856,-0.0849,-0.0895,-0.09,-0.0863,-0.0921,-0.0927,-0.0916,-0.0891,-0.0954,-0.0956,-0.0894,-0.089,-0.0886,-0.0832,0,0,0,0,0,0,-0.0786,-0.0791,-0.0787,-0.0816,-0.0823,-0.0823,-0.0852,-0.0857,-0.0858,-0.0859,-0.0887,-0.0893,-0.0922,-0.0913,-0.0918,-0.0895,-0.0958,-0.0898,-0.0892,-0.0887,-0.0838,-0.0827,-0.0817,0,0,0,0,0,-0.0784,-0.0775,-0.0786,-0.0791,-0.0817,-0.0823,-0.0826,-0.0846,-0.0856,-0.0842,-0.0852,-0.0892,-0.0881,-0.0912,-0.0919,-0.0896,-0.0901,-0.0894,-0.0888,-0.0842,-0.0829,-0.0817,0,0,0,0,0,0,-0.0751,-0.0778,-0.079,-0.079,-0.0799,-0.0827,-0.082,-0.0834,-0.0832,-0.0826,-0.0868,-0.0874,-0.0847,-0.0869,-0.0903,-0.0852,-0.0892,-0.0886,-0.0855,-0.0842,-0.0832,-0.0797,-0.0959,0,0,0,0,0,-0.0743,-0.074,-0.0767,-0.0764,-0.0766,-0.0789,-0.0793,-0.08,-0.0809,-0.0808,-0.0822,-0.0827,-0.0825,-0.0833,-0.0828,-0.0819,-0.0842,-0.0798,-0.0788,-0.0779,-0.0749,-0.0782,-0.0774,-0.0862,-0.0863,-0.0863,0,0,-0.073,-0.0745,-0.0743,-0.0756,-0.0764,-0.0741,-0.0789,-0.078,-0.0755,-0.0815,-0.0774,-0.0789,-0.0808,-0.0784,-0.0774,-0.0805,-0.0761,-0.0771,-0.0764,-0.0738,-0.0775,-0.0767,-0.076,-0.0858,-0.0859,-0.086,0,0,-0.0687,-0.071,-0.0685,-0.0684,-0.069,-0.0701,-0.0692,-0.0699,-0.0697,-0.0669,-0.0695,-0.0694,-0.069,-0.0705,-0.0714,-0.0641,-0.0696,-0.0631,-0.0572,-0.0605,-0.06,-0.0595,-0.0607,-0.0604,-0.064,-0.064,-0.064,0,-0.0664,-0.0637,-0.0677,-0.0646,-0.0628,-0.0673,-0.0622,-0.0632,-0.063,-0.0608,-0.0637,-0.0612,-0.065,-0.0629,-0.0603,-0.0623,-0.0638,-0.0632,-0.0597,-0.0592,-0.0588,-0.0603,-0.06,-0.0636,-0.0637,-0.0637,-0.0637,0,-0.0597,-0.057,-0.0552,-0.0524,-0.0513,-0.0477,-0.0494,-0.047,-0.0474,-0.0479,-0.0444,-0.0496,-0.0476,-0.05,-0.0537,-0.0513,-0.0531,-0.0578,-0.0642,-0.0577,-0.0595,-0.0593,-0.0631,-0.0633,-0.0634,-0.0635,0,0,-0.0534,-0.0506,-0.0492,-0.0443,-0.0435,-0.0405,-0.0369,-0.0332,-0.0271,-0.031,-0.024,-0.0289,-0.0315,-0.0323,-0.0382,-0.0432,-0.044,-0.0486,-0.0489,-0.0519,-0.0491,-0.0552,-0.0556,-0.0491,-0.0491,-0.049,-0.0515,0,-0.045,-0.036,-0.0372,-0.0262,-0.0207,-0.0224,-0.0174,-0.0152,-0.014,-0.0087,-0.0173,-0.0134,-0.0253,-0.0235,-0.0304,-0.0376,-0.0431,-0.0427,-0.0528,-0.0529,-0.0611,-0.0555,-0.0513,-0.0536,-0.0513,-0.0513,-0.0513,0,-0.0353,-0.0306,-0.0189,-0.0099,-0.0073,-0.0017,0.0089,0.0129,0.0153,0.0163,0.0149,0.0094,0.0042,-0.0078,-0.0212,-0.02,-0.0327,-0.0424,-0.0429,-0.0498,-0.0587,-0.0594,-0.0534,-0.0511,-0.0511,-0.0511,-0.0511,0,-0.0248,-0.0159,-0.0053,-0.0025,0.0052,0.012,0.0169,0.0222,0.0292,0.0329,0.0388,0.0297,0.0293,0.0111,-0.0098,-0.0143,-0.0252,-0.0346,-0.0528,-0.0533,-0.052,-0.0526,-0.0455,-0.0455,-0.0455,-0.0455,-0.0455,0,-0.0136,-0.0042,0.0011,0.0078,0.0229,0.0242,0.0409,0.0445,0.0521,0.0637,0.0531,0.0592,0.034,0.0233,-0.0003,-0.0233,-0.0183,-0.0488,-0.0539,-0.0498,-0.0501,-0.05,-0.0504,-0.0456,-0.0455,-0.0455,-0.0455,0,-0.0021,0.0008,0.0141,0.024,0.0288,0.0403,0.0551,0.0663,0.072,0.0871,0.0887,0.0839,0.0705,0.0431,0.0171,-0.0079,-0.0321,-0.043,-0.0354,-0.0398,-0.0605,-0.0606,-0.0623,-0.0625,-0.0627,-0.0629,-0.063,0,0.0051,0.0127,0.0265,0.0351,0.0408,0.0563,0.0675,0.0761,0.0877,0.1022,0.1101,0.1033,0.0966,0.0573,0.016,-0.0244,-0.0307,-0.0482,-0.0593,-0.0571,-0.062,-0.0618,-0.0616,-0.0544,-0.0544,-0.0545,-0.0545,0,0.0184,0.0228,0.0324,0.0489,0.0622,0.0785,0.0945,0.1067,0.119,0.1303,0.1436,0.1391,0.1029,0.0633,0.0083,-0.0192,-0.042,-0.0509,-0.0471,-0.0525,-0.0504,-0.055,-0.0549,-0.0549,-0.0549,-0.0548,-0.0548,-0.0548,0.0279,0.0365,0.0478,0.064,0.0791,0.0993,0.1153,0.132,0.1522,0.1653,0.1592,0.1506,0.1063,0.0334,-0.0048,-0.0426,-0.0476,-0.0657,-0.0652,-0.0648,-0.0651,-0.0637,-0.0705,-0.0706,-0.0706,-0.0707,-0.0707,0,0.0381,0.047,0.0621,0.0817,0.0993,0.1055,0.1321,0.149,0.1744,0.1734,0.1742,0.1273,0.0824,0.0404,-0.0179,-0.0591,-0.0587,-0.0675,-0.0593,-0.0589,-0.0586,-0.0583,-0.0621,-0.0621,-0.0621,-0.0621,0,0,0.044,0.0584,0.0654,0.095,0.1095,0.1352,0.1515,0.1771,0.1861,0.1822,0.1684,0.1379,0.0892,0.0467,-0.0027,-0.0291,-0.0339,-0.0339,-0.0382,-0.0226,-0.0216,-0.0567,-0.0558,0,0,0,0,0]}],[{"header":{"parameterUnit":"m.s-1","parameterCategory":2,"la1":30.2991,"la2":30.254,"lo1":-89.0895,"lo2":-89.0444,"dy":0.0017,"dx":0.0017,"nx":28,"ny":28,"refTime":"2023-08-13T03:00:00:Z","depth":"4","parameterNumber":2,"parameterNumberName":"U-component_of_CURRENTS"},"data":[0,0,0,0,0,0,0,0,0,0,0,0,0,0,0,0,0,0,0,0,0,0,0,0,0,0,0,0,0,0,0,0,0,0,0,0,0,0,0,0,0,0,0,0,0,0,0,0,0,0,0,0,0,0,0,0,0,0,0.1002,0.1001,0,0.1025,0.1027,0.1028,0.1065,0.1064,0.1064,0.1064,0.1183,0.1187,0.119,0,0,0,0,0,0,0,0,0,0,0,0,0,0.1004,0.1005,0.1002,0.1001,0.1001,0.1025,0.1027,0.1028,0.1065,0.1064,0.1064,0.1063,0.1182,0.1186,0.119,0,0,0,0,0,0,0,0,0,0,0,0,0,0.1024,0.1005,0.1002,0.1014,0.1014,0.1025,0.1027,0.1028,0.1065,0.1064,0.1064,0.1063,0.1181,0.1186,0.1191,0.1235,0,0,0.1207,0.121,0,0,0,0,0,0,0,0,0.1023,0.1025,0.1013,0.1013,0.1013,0.1031,0.107,0.1098,0.1065,0.1058,0.1064,0.1063,0.1134,0.1143,0.1164,0.1241,0.1246,0.1208,0.1211,0.1213,0.1215,0,0,0,0,0,0,0,0.1021,0.1024,0.1023,0.1012,0.1012,0.1021,0.1025,0.1077,0.111,0.1058,0.1058,0.1043,0.1137,0.1159,0.1167,0.1248,0.1208,0.1212,0.1216,0.1218,0.135,0.135,0,0,0,0,0,0,0.0995,0.1023,0.1022,0.1023,0.1004,0.1021,0.1025,0.1036,0.1107,0.1113,0.1043,0.1044,0.115,0.1161,0.1172,0.1266,0.1213,0.1218,0.1221,0.135,0.135,0.135,0,0,0,0,0,0,0.0996,0.0996,0.1021,0.1013,0.1015,0.102,0.1032,0.1036,0.1079,0.1092,0.1103,0.1083,0.115,0.1164,0.1256,0.1269,0.1221,0.1225,0.1349,0.135,0.135,0.143,0,0,0,0,0,0,0.0997,0.0997,0.102,0.1012,0.1014,0.1045,0.1032,0.1036,0.1063,0.1066,0.113,0.1139,0.1151,0.1248,0.1262,0.1275,0.123,0.1349,0.1349,0.135,0.1427,0.1433,0.1438,0,0,0,0,0,0.0997,0.0996,0.1022,0.1022,0.1039,0.1045,0.1051,0.1058,0.1066,0.1096,0.115,0.1138,0.1258,0.1256,0.127,0.1285,0.1349,0.1349,0.135,0.1424,0.1432,0.1438,0,0,0,0,0,0,0.0983,0.0999,0.1027,0.1028,0.1053,0.1047,0.1059,0.1077,0.1144,0.1157,0.1183,0.1198,0.1238,0.127,0.1265,0.1316,0.1285,0.1289,0.1336,0.1343,0.1349,0.1356,0.1234,0,0,0,0,0,0.0998,0.1028,0.1035,0.1047,0.1054,0.1075,0.1085,0.11,0.1135,0.1164,0.1219,0.1254,0.1249,0.131,0.1305,0.1404,0.1401,0.1405,0.1411,0.1416,0.1427,0.145,0.146,0.1353,0.1353,0.1353,0,0,0.0999,0.1007,0.1027,0.1051,0.1068,0.1098,0.1084,0.1104,0.1144,0.1168,0.1269,0.1263,0.1263,0.1319,0.1345,0.1369,0.1443,0.1417,0.1422,0.143,0.1452,0.1463,0.1472,0.1353,0.1353,0.1353,0,0,0.0994,0.1023,0.1049,0.1079,0.1105,0.1121,0.1135,0.1176,0.1208,0.1299,0.1277,0.1317,0.1383,0.1388,0.1388,0.1439,0.1426,0.1417,0.1525,0.1547,0.1557,0.1565,0.1574,0.1583,0.148,0.148,0.148,0,0.0992,0.1033,0.1056,0.1085,0.1107,0.1138,0.1172,0.121,0.1289,0.1321,0.1338,0.1387,0.1404,0.1431,0.1451,0.1452,0.1462,0.1505,0.1558,0.1566,0.1574,0.1581,0.1589,0.1484,0.1484,0.1483,0.1483,0,0.1016,0.106,0.1066,0.1136,0.1169,0.1197,0.124,0.1305,0.1353,0.1389,0.1432,0.1468,0.151,0.1499,0.151,0.1556,0.154,0.1517,0.1548,0.159,0.1594,0.1601,0.149,0.1488,0.1487,0.1486,0,0,0.0969,0.1068,0.1079,0.1122,0.12,0.1217,0.1295,0.1355,0.1395,0.1483,0.1548,0.1561,0.159,0.1591,0.1595,0.1653,0.1721,0.1648,0.1647,0.167,0.1775,0.167,0.1668,0.1722,0.1724,0.1725,0.1756,0,0.0985,0.1049,0.1106,0.1183,0.121,0.1281,0.1351,0.1417,0.1468,0.1552,0.1583,0.1627,0.1617,0.1657,0.1708,0.1695,0.1746,0.1714,0.1718,0.1718,0.1632,0.1674,0.1731,0.1762,0.1764,0.1765,0.1766,0,0.0983,0.103,0.1098,0.1203,0.1225,0.1292,0.1386,0.1459,0.1559,0.1605,0.1672,0.1691,0.1782,0.1765,0.1815,0.1803,0.1805,0.18,0.1801,0.1682,0.1627,0.1709,0.1779,0.1778,0.1777,0.1776,0.1775,0,0.0912,0.1018,0.1071,0.1109,0.1233,0.1292,0.1385,0.148,0.1549,0.1659,0.1723,0.1782,0.1857,0.1865,0.188,0.1866,0.1917,0.1886,0.1781,0.1773,0.1825,0.1815,0.1913,0.1913,0.1913,0.1913,0.1913,0,0.0877,0.0928,0.1051,0.1082,0.1175,0.1274,0.136,0.1468,0.1599,0.1676,0.1767,0.1822,0.1894,0.1931,0.1912,0.1875,0.1944,0.1801,0.178,0.1854,0.1848,0.183,0.182,0.1914,0.1914,0.1914,0.1913,0,0.0792,0.0874,0.094,0.1081,0.1141,0.1215,0.1396,0.1448,0.1591,0.1704,0.1765,0.1901,0.1946,0.1969,0.1989,0.1916,0.1881,0.1843,0.1931,0.1912,0.1713,0.1706,0.1732,0.1728,0.1726,0.1723,0.1721,0,0.0761,0.0775,0.0926,0.0987,0.1068,0.1182,0.1266,0.1441,0.1504,0.1713,0.1773,0.1894,0.1944,0.1897,0.1919,0.1873,0.1839,0.1806,0.1752,0.172,0.1698,0.1695,0.1693,0.1717,0.1716,0.1715,0.1715,0,0.0682,0.0733,0.0788,0.0912,0.1014,0.1108,0.1255,0.1302,0.1485,0.1624,0.1736,0.1773,0.1829,0.1832,0.1821,0.1773,0.1819,0.1776,0.1781,0.173,0.1702,0.1682,0.1683,0.1705,0.1706,0.1707,0.1708,0,0.0623,0.0637,0.0706,0.0823,0.0938,0.1027,0.1107,0.1212,0.1316,0.1569,0.1584,0.1705,0.182,0.1781,0.1755,0.1722,0.1683,0.1604,0.1617,0.1628,0.1574,0.1523,0.1463,0,0,0,0,0,0.0563,0.057,0.063,0.0742,0.0853,0.0935,0.1094,0.1165,0.1334,0.1387,0.1496,0.1539,0.1568,0.1621,0.1559,0.1667,0.1659,0.1584,0.1567,0.1651,0.1662,0.1606,0,0,0,0,0,0,0.0518,0.0551,0.0572,0.0642,0.0714,0.0824,0.0921,0.1047,0.1085,0.127,0.1297,0.1432,0.1473,0.1584,0.1526,0.1536,0.1488,0.166,0.1655,0.1644,0.1655,0.1664,0.161,0,0,0,0,0]},{"header":{"parameterUnit":"m.s-1","parameterCategory":2,"la1":30.2991,"la2":30.254,"lo1":-89.0895,"lo2":-89.0444,"dy":0.0017,"dx":0.0017,"nx":28,"ny":28,"refTime":"2023-08-13T03:00:00:Z","depth":"4","parameterNumber":3,"parameterNumberName":"V-component_of_CURRENTS"},"data":[0,0,0,0,0,0,0,0,0,0,0,0,0,0,0,0,0,0,0,0,0,0,0,0,0,0,0,0,0,0,0,0,0,0,0,0,0,0,0,0,0,0,0,0,0,0,0,0,0,0,0,0,0,0,0,0,0,0,-0.0102,-0.0102,0,-0.0148,-0.0149,-0.015,-0.0174,-0.0173,-0.0172,-0.0172,-0.0297,-0.0301,-0.0305,0,0,0,0,0,0,0,0,0,0,0,0,0,-0.0093,-0.0093,-0.0102,-0.0102,-0.0102,-0.0148,-0.0149,-0.0151,-0.0174,-0.0173,-0.0172,-0.0172,-0.0296,-0.03,-0.0305,0,0,0,0,0,0,0,0,0,0,0,0,0,-0.012,-0.0093,-0.0102,-0.0114,-0.0115,-0.0148,-0.0149,-0.0151,-0.0174,-0.0173,-0.0172,-0.0171,-0.0294,-0.03,-0.0306,-0.0359,0,0,-0.0323,-0.0326,0,0,0,0,0,0,0,0,-0.0118,-0.0121,-0.0112,-0.0113,-0.0114,-0.0148,-0.0192,-0.0222,-0.0174,-0.0158,-0.0172,-0.0171,-0.0251,-0.026,-0.0279,-0.0365,-0.0371,-0.0324,-0.0327,-0.033,-0.0332,0,0,0,0,0,0,0,-0.0116,-0.0119,-0.0127,-0.0112,-0.0113,-0.0137,-0.014,-0.0198,-0.0216,-0.016,-0.016,-0.0155,-0.0253,-0.0273,-0.0282,-0.0372,-0.0324,-0.0329,-0.0332,-0.0335,-0.0486,-0.0486,0,0,0,0,0,0,-0.0095,-0.0117,-0.0125,-0.0128,-0.0107,-0.0137,-0.0141,-0.0144,-0.0213,-0.0221,-0.0156,-0.0156,-0.0264,-0.0276,-0.0287,-0.0335,-0.033,-0.0335,-0.0339,-0.0485,-0.0486,-0.0486,0,0,0,0,0,0,-0.0095,-0.0096,-0.0123,-0.0118,-0.0122,-0.0137,-0.0141,-0.0145,-0.0164,-0.0208,-0.0218,-0.0169,-0.0264,-0.0279,-0.0346,-0.0341,-0.0338,-0.0343,-0.0484,-0.0485,-0.0486,-0.0444,0,0,0,0,0,0,-0.0095,-0.0096,-0.01,-0.0116,-0.0121,-0.0132,-0.0141,-0.0146,-0.0159,-0.016,-0.0223,-0.0234,-0.0264,-0.0337,-0.0352,-0.0349,-0.0348,-0.0484,-0.0485,-0.0486,-0.0445,-0.0443,-0.0442,0,0,0,0,0,-0.0094,-0.0086,-0.0101,-0.0101,-0.0124,-0.0132,-0.0137,-0.015,-0.016,-0.0166,-0.022,-0.0232,-0.0352,-0.0344,-0.036,-0.0358,-0.0483,-0.0485,-0.0486,-0.0445,-0.0444,-0.0442,0,0,0,0,0,0,-0.0075,-0.0088,-0.0104,-0.0099,-0.0113,-0.0133,-0.0134,-0.0153,-0.0201,-0.0204,-0.0257,-0.0273,-0.0313,-0.0355,-0.0344,-0.0404,-0.0413,-0.0417,-0.0376,-0.0375,-0.0374,-0.0354,-0.0353,0,0,0,0,0,-0.0076,-0.0081,-0.0095,-0.0094,-0.0097,-0.0124,-0.0132,-0.0141,-0.0176,-0.0195,-0.0247,-0.0298,-0.0333,-0.037,-0.0405,-0.0466,-0.0493,-0.047,-0.0469,-0.0467,-0.0463,-0.0511,-0.0513,-0.049,-0.049,-0.049,0,0,-0.0073,-0.0075,-0.0083,-0.0092,-0.0105,-0.0108,-0.0127,-0.013,-0.0142,-0.0205,-0.0253,-0.0292,-0.0344,-0.0388,-0.0412,-0.0427,-0.0488,-0.0469,-0.0467,-0.0464,-0.0512,-0.0514,-0.0516,-0.0491,-0.0491,-0.0491,0,0,-0.0049,-0.0067,-0.006,-0.007,-0.0077,-0.0094,-0.0094,-0.0125,-0.0145,-0.0198,-0.023,-0.0279,-0.0356,-0.039,-0.0415,-0.0437,-0.0465,-0.0441,-0.044,-0.0486,-0.0488,-0.049,-0.0522,-0.0527,-0.0458,-0.0458,-0.0458,0,-0.0038,-0.0036,-0.0059,-0.0049,-0.0051,-0.0086,-0.0078,-0.0107,-0.0162,-0.0184,-0.0203,-0.0304,-0.0351,-0.0397,-0.0402,-0.0432,-0.0459,-0.0439,-0.0483,-0.0486,-0.0488,-0.052,-0.0527,-0.0456,-0.0456,-0.0456,-0.0456,0,-0.0012,-0.0012,-0.0003,-0.0011,-0.0021,-0.0017,-0.0049,-0.0077,-0.0113,-0.0149,-0.0202,-0.0275,-0.0334,-0.0353,-0.039,-0.043,-0.0442,-0.0459,-0.0482,-0.0488,-0.0522,-0.0529,-0.0453,-0.0454,-0.0454,-0.0455,0,0,0.0025,0.0018,0.0019,0.0025,0.0001,0.0003,-0.0022,-0.0051,-0.0065,-0.0135,-0.0167,-0.0241,-0.0284,-0.0315,-0.0366,-0.0422,-0.0469,-0.0454,-0.0457,-0.0475,-0.0564,-0.0529,-0.0534,-0.0496,-0.0497,-0.0498,-0.0577,0,0.0056,0.0085,0.0064,0.0078,0.0091,0.005,0.0032,-0.0004,-0.005,-0.0098,-0.0173,-0.0217,-0.0267,-0.0295,-0.0359,-0.0438,-0.0488,-0.0446,-0.0564,-0.0567,-0.0528,-0.0542,-0.0502,-0.0582,-0.0584,-0.0585,-0.0586,0,0.0091,0.0108,0.0135,0.0132,0.0133,0.013,0.0103,0.0082,0.0009,-0.0028,-0.0096,-0.0158,-0.0249,-0.0284,-0.0428,-0.04,-0.0474,-0.0538,-0.0543,-0.053,-0.0546,-0.0579,-0.06,-0.0599,-0.0598,-0.0597,-0.0596,0,0.0137,0.0155,0.0181,0.0181,0.0171,0.0172,0.0157,0.0103,0.0094,0.0016,-0.0005,-0.0121,-0.0174,-0.0292,-0.0432,-0.0434,-0.0583,-0.0602,-0.0637,-0.0635,-0.066,-0.0658,-0.069,-0.0689,-0.0689,-0.0689,-0.0689,0,0.0177,0.0196,0.0211,0.0223,0.0257,0.0227,0.0239,0.0205,0.0162,0.0154,0.0039,0.0003,-0.018,-0.0292,-0.0418,-0.0549,-0.0575,-0.0633,-0.0655,-0.0641,-0.0635,-0.0665,-0.0661,-0.0692,-0.0691,-0.0691,-0.069,0,0.0211,0.0218,0.0256,0.0268,0.0282,0.0302,0.0308,0.0309,0.0264,0.0249,0.023,0.009,-0.0061,-0.0236,-0.0432,-0.0513,-0.0651,-0.0686,-0.0649,-0.0668,-0.0674,-0.0668,-0.0732,-0.0732,-0.0731,-0.0731,-0.0731,0,0.0224,0.0254,0.0301,0.0331,0.0339,0.0371,0.0391,0.0365,0.037,0.0305,0.03,0.0156,0.0047,-0.0203,-0.0392,-0.0622,-0.0648,-0.0703,-0.0699,-0.0664,-0.068,-0.0674,-0.0668,-0.073,-0.073,-0.073,-0.0729,0,0.0257,0.0279,0.031,0.0381,0.042,0.0456,0.0481,0.0499,0.0468,0.0441,0.0362,0.0215,0.0046,-0.0179,-0.0355,-0.0521,-0.0664,-0.0699,-0.0701,-0.0698,-0.0663,-0.0677,-0.0672,-0.0728,-0.0728,-0.0728,-0.0728,0,0.0283,0.0309,0.036,0.0421,0.0474,0.0508,0.0522,0.0524,0.0525,0.0465,0.0441,0.024,0.0121,-0.0126,-0.0293,-0.0452,-0.0489,-0.0519,-0.0531,-0.0535,-0.0457,-0.0382,-0.0378,0,0,0,0,0,0.0306,0.0334,0.0392,0.0447,0.0501,0.0527,0.0566,0.0571,0.0565,0.0529,0.0489,0.033,0.0072,-0.0059,-0.0211,-0.0295,-0.0524,-0.0474,-0.0566,-0.0719,-0.0721,-0.066,0,0,0,0,0,0,0.0314,0.0369,0.0392,0.0463,0.0501,0.055,0.0573,0.0572,0.0549,0.0522,0.0376,0.0318,0.0048,0.0155,-0.021,-0.0261,-0.033,-0.0602,-0.0604,-0.0718,-0.072,-0.0721,-0.0659,0,0,0,0,0]}]]